User: anonymous   Login
Location: Camp Creek
(33.9000°N, 111.8167°W)
Time: 09:34:41
(UTC-07:00)
Language:

DELTA 2 R/B (1) - Orbit

View from above orbital plane
View from above orbital plane
View from above satellite
View from above satellite

Ground track
Ground track

The orbit data is extracted from the following two-line orbital elements,

1 27665U 03005C   18113.92439196 -.00000009 +00000-0 +30235-4 0  9998
2 27665 039.5766 328.0137 0007724 138.7614 353.0782 14.28473622795286
Epoch (UTC): 23 April 2018 22:11:07
Eccentricity: 0.0007724
inclination: 39.5766°
perigee height: 791 km
apogee height: 802 km
right ascension of ascending node: 328.0137°
argument of perigee: 138.7614°
revolutions per day: 14.28473622
mean anomaly at epoch: 353.0782°
orbit number at epoch: 79528

The dashed part of the orbit path shows where the satellite is in the earth's shadow,  

DLR